Regional Weather Roundup
Issued by NWS

Home | Current Version | Previous Version | Text Only | Print | Product List | Glossary Off
Versions: 1 2 3 4 5 6 7 8 9 10 11 12 13 14 15 16 17 18 19 20 21 22 23 24 25 26 27 28 29 30 31 32 33 34 35 36 37 38 39 40 41 42 43 44 45 46 47 48 49 50

000
ASUS43 KMKX 230221
RWRWI

WISCONSIN REGIONAL WEATHER ROUNDUP
NATIONAL WEATHER SERVICE MILWAUKEE/SULLIVAN WI
900 PM CDT MON SEP 22 2014

NOTE: "FAIR" INDICATES FEW OR NO CLOUDS BELOW 12,000 FEET WITH NO
SIGNIFICANT WEATHER AND/OR OBSTRUCTIONS TO VISIBILITY.

WIZ001-002-006>008-014>016-023>028-230300-
NORTHWEST WISCONSIN

CITY           SKY/WX    TMP DP  RH WIND       PRES   REMARKS
SUPERIOR ARPT  CLEAR     57  52  83 SW5       30.12R
ASHLAND        CLEAR     56  51  84 SW6       30.14R
HAYWARD        CLEAR     53  50  89 CALM      30.17R
SIREN          CLEAR     54  52  94 S3        30.16S
CUMBERLAND     CLEAR     50  48  93 S3        30.18R
RICE LAKE      CLEAR     53  51  92 CALM      30.19S
CHETEK         CLEAR     52  51  97 CALM      30.18S
LADYSMITH      CLEAR     51  49  92 CALM      30.20R
EAU CLAIRE     CLEAR     55  51  86 CALM      30.18R
MENOMONIE      CLEAR     55  51  85 CALM      30.19R
NEW RICHMOND   CLEAR     53  52  96 CALM      30.18R
OSCEOLA        CLEAR     53  53  99 CALM      30.19S
$$

WIZ003>005-009-010-017-018-230300-
NORTH CENTRAL WISCONSIN

CITY           SKY/WX    TMP DP  RH WIND       PRES   REMARKS
MANITOWISH WTR CLEAR     49  49 100 SW3       30.16S
ARBOR VITAE    CLEAR     52  49  91 CALM      30.17R
WOODRUFF       CLEAR     52  49  91 CALM      30.17R
RHINELANDER    CLEAR     51  48  89 W6        30.19R
EAGLE RIVER    FOG       46  46 100 CALM      30.16R VSB 3/4
LAND O LAKES   CLEAR     46  45  97 CALM      30.17R
PHILLIPS       CLEAR     50  48  94 CALM      30.18R
TOMAHAWK       CLEAR     53  49  84 CALM      30.19R
MEDFORD        CLEAR     50  48  94 SW5       30.19S
MERRILL        CLEAR     52  50  92 CALM      30.19R
$$

WIZ029-030-035-036-043>047-230300-
CENTRAL WISCONSIN

CITY           SKY/WX    TMP DP  RH WIND       PRES   REMARKS
WAUSAU         CLEAR     55  50  83 CALM      30.17S
MOSINEE        CLEAR     52  50  93 SW3       30.20S
MARSHFIELD     CLEAR     54  49  83 SW3       30.20R
STEVENS POINT  CLEAR     51  48  90 CALM      30.21R
WAUPACA        CLEAR     55  52  88 CALM      30.20R
WAUTOMA        CLEAR     50  49  96 CALM      30.21R
WISC RAPIDS    CLEAR     51  50  96 CALM      30.22R
CAMP DOUGLAS   CLEAR     48  48 100 SE1       30.21R
$$

WIZ011>013-019>022-031-037>040-048>050-230300-
NORTHEAST WISCONSIN

CITY           SKY/WX    TMP DP  RH WIND       PRES   REMARKS
ANTIGO         CLEAR     52  48  87 W6        30.19R
SHAWANO        CLEAR     57  50  78 CALM      30.19R
OCONTO         CLEAR     50  50 100 CALM      30.17R
STURGEON BAY   CLEAR     57  48  72 SW6       30.18R
GREEN BAY      CLEAR     55  50  83 SW3       30.18R
MANITOWOC      CLEAR     52  50  93 CALM      30.19S
APPLETON       CLEAR     59  48  67 SW8       30.19R
CLINTONVILLE   CLEAR     50  46  87 CALM      30.19R
OSHKOSH        CLEAR     56  49  77 SW3       30.20R
$$

WIZ032>034-041-042-053>061-230300-
SOUTHWEST WISCONSIN

CITY           SKY/WX    TMP DP  RH WIND       PRES   REMARKS
LA CROSSE      CLEAR     57  52  83 SE5       30.20R
SPARTA         CLEAR     52  50  93 CALM      30.22R
VIROQUA        CLEAR     55  52  90 CALM      30.22R
BOSCOBEL       CLEAR     53  51  93 CALM      30.23R
PRAIRIE DU CHI CLEAR     55  51  88 E3        30.22R
PLATTEVILLE    CLEAR     56  47  72 S7        30.24S
$$

WIZ056-057-062-063-064-067-068-230300-
SOUTH CENTRAL WISCONSIN

CITY           SKY/WX    TMP DP  RH WIND       PRES   REMARKS
REEDSBURG      CLEAR     55  51  88 CALM      30.22R
BARABOO/DELLS  CLEAR     54  49  84 S3        30.22R
LONE ROCK      CLEAR     55  48  77 E3        30.22R
MINERAL POINT  CLEAR     59  46  63 S5        30.23S
WATERTOWN      CLEAR     50  49  97 CALM      30.22R
MADISON        CLEAR     54  50  86 CALM      30.22R
MIDDLETON      CLEAR     50  49  97 CALM      30.23S
MONROE         CLEAR     57  48  72 SW6       30.24R
JANESVILLE     CLEAR     54  50  87 CALM      30.23R
$$

WIZ051-052-058>065-066-070>072-230300-
SOUTHEAST WISCONSIN

CITY           SKY/WX    TMP DP  RH WIND       PRES   REMARKS
MILWAUKEE      CLEAR     60  47  61 SW5       30.22R
WAUKESHA       CLEAR     52  45  76 SW3       30.23R
MILWAUKEE/TIMM CLEAR     54  43  66 CALM      30.20F
RACINE         CLEAR     52  49  89 CALM      30.25R
BURLINGTON     CLEAR     48  47  95 CALM      30.23S
KENOSHA        CLEAR     53  48  83 S5        30.23S
FOND DU LAC    CLEAR     54  49  83 SW6       30.21R
SHEBOYGAN      CLEAR     53  48  83 CALM      30.20S
WEST BEND      CLEAR     52  46  82 CALM      30.21S
JUNEAU         CLEAR     55  49  82 CALM      30.23R
$$

LSZ147-162-230300-
LAKE SUPERIOR

STATION/POSITION TIME  TEMP    WIND        PRES    WAVE
                       AIR SEA DIR/SP/G            HT/PER
                 (UTC) (F)     (DEG/KT/KT) (MB)    (FT/S)
W MID LAKE BUOY  0150   53 48  230/ 10/ 12 1018.3R   2/ 4
DEVILS ISLAND    0200   60     230/ 14/ 16 1019.3R
PORT WING        0140   62     200/  6/  9 1020.0R
SAXON HARBOR     0100   59     190/  3/  5 1019.6R
$$

LMZ867-665-643>646-230300-
LAKE MICHIGAN

STATION/POSITION TIME  TEMP    WIND        PRES    WAVE
                       AIR SEA DIR/SP/G            HT/PER
                 (UTC) (F)     (DEG/KT/KT) (MB)    (FT/S)
CHAMBERS ISLAND  0100   61     200/  6/ 10 1020.7R
S GREEN BAY BUOY 0100   61                 1022.1R
N MID LAKE BUOY  0150   58 57  220/ 16/ 17 1020.6R   3/ 4
NORTHPORT PIER   0100   57     170/  2/  6 1020.3R
KEWAUNEE LAKESHO 0200   55     250/  1/  2 1021.1R
SHEBOYGAN LAKESH 0200   56 52  200/  4/  5 1023.3R
PORT WASHINGTON  0100   57     250/  1/  2 1023.4R
ATWATER BUOY     0200   58     170/  4/  6 1024.2R
S MID LAKE BUOY  0150   60 62  190/ 12/ 14 1024.0R   1/ 6
KENOSHA   LAKESH 0200   56     190/  5/  6 1023.4R
$$

TC  - TEMPERATURE IN CELSIUS
VSB - VISIBILITY IN STATUTE MILES
WCI - WIND CHILL INDEX
HX  - HEAT INDEX



USA.gov is the U.S. government's official web portal to all federal, state and local government web resources and services.